Flag for Finland Weather past 2 weeks in Kotka, Finland

Now
59 °F

Sunny.


Feels Like: 59 °F
Forecast: 46 / 62 °F
Wind: 2 mph from North

Location: Utti

Current Time: Sep 16, 2014 at 1:19:24 PM

Latest Report: Sep 16, 2014 at 12:50 PM


Visibility: 10 mi

Pressure: 30.45 "Hg

Humidity: 45%

Dew point: 37 °F

Location of KotkaLocation

Historic Weather in Kotka — Graph

°F

Kotka temperature yesterday

Maximum temperature yesterday: 63 °F (at 3:20 PM)
Minimum temperature yesterday: 46 °F (at 11:50 PM)
Average temperature yesterday: 54 °F

Past Weeks' High & Low Weather Summary

 TemperatureHumidityPressure
High72 °F (Sep 5, 3:50 PM)100% (Sep 2, 4:20 AM)30.45 "Hg (Sep 2, 4:20 AM)
Low39 °F (Sep 16, 6:20 AM)37% (Sep 15, 3:50 PM)29.92 "Hg (Sep 9, 6:50 PM)
Average57 °F80%30.22 "Hg
* Reported Sep 1 11:20 AM — Sep 16 11:50 AM, Kotka, Weather by CustomWeather, © 2014

Note: Actual official high and low records may vary slightly from our data, if they occured in-between our weather recording intervals... More about our weather records

Advertising

Kotka weather history for previous 24 hours

 ConditionsComfort  
Time TempWeatherWind HumidityBarometerVisibility
11:50 AM
Sep 16
59 °FSunny.3 mph45%30.45 "Hg10 mi
11:20 AM57 °FSunny.2 mph48%30.45 "Hg10 mi
10:50 AM55 °FSunny.2 mph55%30.45 "Hg10 mi
10:20 AM55 °FSunny.1 mph51%30.45 "Hg10 mi
9:50 AM52 °FSunny.1 mph62%30.45 "Hg10 mi
9:20 AM50 °FSunny.2 mph71%30.45 "Hg10 mi
8:50 AM46 °FSunny.2 mph87%30.45 "Hg10 mi
8:20 AM45 °FSunny.2 mph93%30.45 "Hg10 mi
7:50 AM43 °FSunny.2 mph93%30.45 "Hg10 mi
7:20 AM39 °FFog.1 mph100%30.45 "HgN/A
6:50 AM41 °FFog.2 mph93%30.42 "HgN/A
6:20 AM39 °FClear.2 mph93%30.42 "Hg10 mi
5:50 AM41 °FClear.1 mph93%30.42 "Hg10 mi
5:20 AM41 °FClear.2 mph93%30.42 "Hg10 mi
4:50 AM41 °FClear.1 mph87%30.42 "Hg10 mi
4:20 AM41 °FClear.3 mph93%30.42 "Hg10 mi
3:50 AM41 °FClear.2 mph100%30.42 "Hg10 mi
3:20 AM43 °FClear.2 mph93%30.42 "Hg10 mi
2:50 AM43 °FClear.2 mph100%30.42 "Hg10 mi
2:20 AM43 °FClear.2 mph93%30.42 "Hg10 mi
1:50 AM46 °FClear.2 mph82%30.42 "Hg10 mi
1:20 AM43 °FClear.2 mph93%30.42 "Hg10 mi
12:50 AM46 °FClear.3 mph87%30.42 "Hg10 mi
12:20 AM46 °FClear.2 mph100%30.42 "Hg5 mi
11:50 PM
Sep 15
46 °FFog.3 mph100%30.42 "Hg2 mi
11:20 PM48 °FClear.3 mph94%30.42 "Hg5 mi
10:50 PM48 °FClear.3 mph94%30.42 "Hg10 mi
10:20 PM48 °FClear.2 mph94%30.42 "Hg10 mi
9:50 PM48 °FClear.2 mph87%30.42 "Hg10 mi
9:20 PM50 °FClear.2 mph82%30.42 "Hg10 mi
8:50 PM52 °FClear.2 mph77%30.42 "Hg10 mi
8:20 PM52 °FSunny.2 mph67%30.42 "Hg10 mi
7:50 PM54 °FSunny.2 mph63%30.42 "Hg10 mi
7:20 PM57 °FSunny.2 mph51%30.42 "Hg10 mi
6:50 PM57 °FSunny.3 mph51%30.42 "Hg10 mi
6:20 PM59 °FPassing clouds.5 mph48%30.42 "HgN/A
5:50 PM61 °FPassing clouds.6 mph42%30.42 "HgN/A
5:20 PM61 °FPassing clouds.8 mph42%30.42 "HgN/A
4:50 PM61 °FPassing clouds.6 mph42%30.42 "HgN/A
4:20 PM61 °FPassing clouds.7 mph42%30.42 "HgN/A
3:50 PM63 °FPassing clouds.8 mph37%30.42 "HgN/A
3:39 PM61 °FPassing clouds.6 mph39%30.42 "HgN/A
3:20 PM63 °FPassing clouds.7 mph39%30.42 "HgN/A
2:50 PM61 °FPassing clouds.7 mph42%30.45 "HgN/A
2:20 PM61 °FPassing clouds.8 mph39%30.45 "HgN/A
1:50 PM61 °FPassing clouds.8 mph42%30.45 "HgN/A
1:20 PM61 °FPassing clouds.7 mph45%30.45 "HgN/A
Weather by CustomWeather, © 2014

See weather overviewHow to use our weather pages